[[{"header":{"parameterUnit":"m.s-1","parameterCategory":1,"la1":30.2992,"la2":30.254,"lo1":-89.0895,"lo2":-89.0443,"dy":0.0025,"dx":0.0025,"nx":19,"ny":19,"refTime":"2026-03-23T09:00:00:Z","depth":0,"parameterNumber":2,"parameterNumberName":"U-component_of_WINDS"},"data":[0,0,0,3.2996,3.3,3.3217,3.3218,3.3501,3.3504,0,0,0,0,0,0,0,0,0,0,0,3.2933,3.2935,3.2995,3.3001,3.3217,3.3218,3.3501,3.3504,0,0,0,0,0,0,0,0,0,0,0,3.2932,3.2935,3.2937,3.3002,3.3217,3.3218,3.35,3.3335,0,0,0,0,0,0,0,0,0,0,3.3124,3.3068,3.2934,3.2937,3.3003,3.3217,3.3218,3.3327,3.3345,3.3405,0,3.3457,0,3.3485,3.3523,3.3524,0,0,0,3.3,3.3052,3.3109,3.2938,3.3005,3.3217,3.3119,3.3337,3.3358,3.3429,3.3461,3.3472,3.349,3.3525,3.3526,3.3869,3.387,0,0,3.2988,3.2974,3.3094,3.3122,3.3087,3.3112,3.3126,3.335,3.3384,3.3462,3.3478,3.3494,3.3527,3.3529,3.3867,3.3869,0,0,0,3.2954,3.2966,3.3016,3.3111,3.3149,3.3119,3.3134,3.3374,3.3392,3.3481,3.3498,3.3528,3.3532,3.3865,3.3868,3.3933,0,0,0,3.2947,3.2946,3.3011,3.3005,3.3145,3.3264,3.3154,3.3376,3.3402,3.3496,3.3529,3.3535,3.3864,3.3867,3.3928,3.3966,0,0,0,3.2919,3.2943,3.2974,3.3004,3.3096,3.3261,3.3291,3.3382,3.3412,3.3524,3.3535,3.3862,3.3866,3.3923,3.3958,3.4051,0,0,0,3.2885,3.3032,3.2975,3.3146,3.3094,3.3299,3.329,3.3444,3.3548,3.353,3.3864,3.3868,3.3921,3.3953,3.4045,3.4125,3.4157,0,0,3.3062,3.3053,3.3154,3.311,3.332,3.3268,3.3489,3.3599,3.3624,3.3786,3.3795,3.3929,3.3958,3.405,3.4345,3.437,0,0,0,3.3205,3.3277,3.3336,3.3433,3.352,3.3596,3.3673,3.3714,3.3852,3.3704,3.3989,3.4007,3.4061,3.41,3.4121,3.4168,3.3885,3.3885,3.3885,3.3436,3.3457,3.3626,3.3673,3.3768,3.3845,3.3924,3.3992,3.3989,3.4056,3.4103,3.4279,3.4324,3.434,3.4389,3.4149,3.4149,3.4149,3.4149,3.3696,3.38,3.379,3.3949,3.3972,3.4107,3.4188,3.418,3.431,3.4246,3.4295,3.4222,3.4367,3.4411,3.4155,3.4154,3.4153,3.4152,3.4152,3.3847,3.3901,3.3947,3.4088,3.4195,3.424,3.4364,3.4381,3.4399,3.4447,3.4499,3.4498,3.4497,3.4471,3.4472,3.4472,3.4473,3.4473,3.4473,3.3985,3.4035,3.4136,3.4238,3.4302,3.4389,3.4468,3.4532,3.4607,3.461,3.4611,3.4599,3.4378,3.4321,3.4483,3.4481,3.448,3.4479,3.4479,3.4238,3.4183,3.4339,3.4403,3.4524,3.4628,3.4649,3.4778,3.4834,3.4894,3.4873,3.4707,3.4699,3.4682,3.4634,3.4868,3.4868,3.4868,3.4868,3.4364,3.4361,3.4523,3.4624,3.4725,3.4759,3.4935,3.4998,3.5055,3.5091,3.506,3.4999,3.4981,3.4984,3.496,3.4916,3.5217,3.5217,3.5217,3.4519,3.4527,3.4672,3.4725,3.4821,3.4904,3.5069,3.5186,3.524,3.5232,3.5119,3.5104,3.5007,3.4974,3.4961,3.4924,3.4844,0,0]},{"header":{"parameterUnit":"m.s-1","parameterCategory":1,"la1":30.2992,"la2":30.254,"lo1":-89.0895,"lo2":-89.0443,"dy":0.0025,"dx":0.0025,"nx":19,"ny":19,"refTime":"2026-03-23T09:00:00:Z","depth":0,"parameterNumber":3,"parameterNumberName":"V-component_of_WINDS"},"data":[0,0,0,0.9826,0.9828,0.9905,0.9905,1.0005,1.0006,0,0,0,0,0,0,0,0,0,0,0,0.9805,0.9805,0.9826,0.9828,0.9905,0.9905,1.0005,1.0006,0,0,0,0,0,0,0,0,0,0,0,0.9804,0.9805,0.9806,0.9828,0.9905,0.9905,1.0005,0.9946,0,0,0,0,0,0,0,0,0,0,0.9871,0.9852,0.9805,0.9806,0.9829,0.9905,0.9905,0.9943,0.995,0.9971,0,0.999,0,1.0,1.0013,1.0013,0,0,0,0.9827,0.9847,0.9867,0.9806,0.9829,0.9905,0.987,0.9947,0.9954,0.9979,0.9991,0.9995,1.0001,1.0013,1.0014,1.0138,1.0139,0,0,0.9823,0.9819,0.9861,0.9871,0.986,0.9868,0.9872,0.9951,0.9964,0.9992,0.9997,1.0003,1.0014,1.0015,1.0137,1.0138,0,0,0,0.9811,0.9816,0.9834,0.9867,0.9881,0.987,0.9875,0.9961,0.9967,0.9999,1.0004,1.0015,1.0016,1.0137,1.0138,1.0165,0,0,0,0.9809,0.9809,0.9832,0.9831,0.988,0.9922,0.9883,0.9961,0.997,1.0003,1.0015,1.0017,1.0136,1.0137,1.0163,1.0179,0,0,0,0.9799,0.9808,0.982,0.983,0.9863,0.9921,0.9931,0.9963,0.9974,1.0013,1.0017,1.0136,1.0137,1.0161,1.0176,1.0211,0,0,0,0.9788,0.9843,0.982,0.9884,0.9862,0.9937,0.9931,0.9986,1.0023,1.0015,1.0136,1.0138,1.016,1.0174,1.0209,1.024,1.0253,0,0,0.9856,0.9851,0.9889,0.9871,0.9948,0.9925,1.0007,1.0044,1.0051,1.0108,1.0112,1.0163,1.0176,1.021,1.0323,1.0333,0,0,0,0.9909,0.9936,0.9958,0.9993,1.0022,1.0049,1.0074,1.0087,1.0136,1.008,1.0185,1.0192,1.0213,1.0228,1.0237,1.0255,1.0144,1.0144,1.0144,1.0001,1.0006,1.0069,1.0083,1.0117,1.0142,1.0169,1.0192,1.0188,1.0212,1.023,1.0298,1.0315,1.0322,1.034,1.0246,1.0246,1.0246,1.0247,1.0101,1.0141,1.0133,1.0191,1.0196,1.0245,1.027,1.0265,1.0311,1.0285,1.0304,1.0276,1.0333,1.0349,1.0249,1.0248,1.0248,1.0248,1.0248,1.0163,1.0183,1.0198,1.0248,1.0285,1.0297,1.0341,1.0344,1.0347,1.0365,1.0384,1.0384,1.0384,1.0374,1.0374,1.0374,1.0374,1.0375,1.0375,1.0222,1.0238,1.0275,1.0309,1.0331,1.036,1.0384,1.0406,1.0431,1.0429,1.0429,1.0423,1.0337,1.0315,1.0378,1.0378,1.0377,1.0377,1.0377,1.0324,1.0301,1.0358,1.038,1.042,1.0457,1.0459,1.0503,1.0521,1.0542,1.0531,1.0466,1.0462,1.0456,1.0438,1.0529,1.0529,1.0529,1.0529,1.0377,1.0374,1.0433,1.0468,1.0502,1.0509,1.0573,1.0591,1.0606,1.0617,1.0604,1.0581,1.0574,1.0574,1.0565,1.0548,1.0666,1.0666,1.0666,1.044,1.0441,1.0495,1.0509,1.054,1.0567,1.0627,1.0666,1.0679,1.0671,1.0626,1.0621,1.0583,1.057,1.0564,1.0549,1.052,0,0]}]]